User: anonymous   Login
Location: Azul
(36.7830°S, 59.8500°W)
Time: 01:15:38
(UTC-03:00)
Language:

FALCONSAT 3 - Orbit

View from above orbital plane
View from above orbital plane
View from above satellite
View from above satellite

Ground track
Ground track

The orbit data is extracted from the following two-line orbital elements,

1 30776U 07006E   21295.56597164  .00007433  00000-0  16857-3 0  9995
2 30776  35.4354   2.4520 0002042 334.0020  26.0606 15.42391388812737
Epoch (UTC): 22 October 2021 13:34:59
Eccentricity: 0.0002042
inclination: 35.4354°
perigee height: 437 km
apogee height: 440 km
right ascension of ascending node: 2.4520°
argument of perigee: 334.0020°
revolutions per day: 15.42391388
mean anomaly at epoch: 26.0606°
orbit number at epoch: 81273

The dashed part of the orbit path shows where the satellite is in the earth's shadow,  

DLR